Regional Weather Roundup
Issued by NWS Kansas City/Pleasant Hill, MO

Home | Current Version | Previous Version | Graphics & Text | Print | Product List | Glossary Off
Versions: 1 2 3 4 5 6 7 8 9 10 11 12 13 14 15 16 17 18 19 20 21 22 23 24 25 26 27 28 29 30 31 32 33 34 35 36 37 38 39 40 41 42 43 44 45 46 47 48 49 50

000
ASUS43 KEAX 310011
RWREAX

WEATHER ROUNDUP FOR EASTERN KANSAS AND NORTHWEST MISSOURI
NATIONAL WEATHER SERVICE KANSAS CITY/PLEASANT HILL MO
600 PM CST FRI JAN 30 2015

KSZ040-057-103>105-MOZ028-029-037-043-310100-
...KANSAS CITY METROPOLITAN AREA...

CITY           SKY/WX    TMP DP  RH WIND       PRES   REMARKS
K.C. INTL      CLOUDY    33  19  56 S6        30.38F WCI  28
6HR MIN TEMP:  32; 6HR MAX TEMP:  39;

K.C. DOWNTOWN  CLOUDY    37  19  48 E6        30.39F WCI  32
6HR MIN TEMP:  34; 6HR MAX TEMP:  42;

LEES SUMMIT    CLOUDY    38  18  44 S6        30.40F WCI  33
6HR MIN TEMP:  32; 6HR MAX TEMP:  41;

OLATHE - IXD   CLOUDY    36  23  59 SE7       30.40F WCI  30
6HR MIN TEMP:  34; 6HR MAX TEMP:  40;

OLATHE - OJC   CLOUDY    36  22  56 S3        30.39F
6HR MIN TEMP:  33; 6HR MAX TEMP:  40;

LAWRENCE       CLOUDY    35  22  58 S7        30.40F WCI  29

$$

MOZ001>008-011>017-020>025-030>033-038>040-044>046-053-054-310100-
...NORTHERN AND CENTRAL MISSOURI...

CITY           SKY/WX    TMP DP  RH WIND       PRES   REMARKS
ST. JOSEPH     CLOUDY    31  19  61 S6        30.39F WCI  25
6HR MIN TEMP:  31; 6HR MAX TEMP:  38;

MOSBY          CLOUDY    36  19  51 CALM      30.41F
WARRENSBURG    CLOUDY    36  18  48 CALM      30.42F
WHITEMAN AFB   CLOUDY    34  20  56 SE3       30.41F
6HR MIN TEMP:  33; 6HR MAX TEMP:  39;

CLINTON        CLOUDY    37  21  52 CALM      30.43F
SEDALIA        MOCLDY    37  18  46 CALM      30.43F
6HR MIN TEMP:  34; 6HR MAX TEMP:  41;

WARSAW         NOT AVBL
MARSHALL       MOCLDY    37  21  52 SW3       30.44F
CHILLICOTHE      N/A     32  19  58 S3        30.43F
6HR MIN TEMP:  31; 6HR MAX TEMP:  38;

MOBERLY        CLEAR     32  18  55 CALM      30.44S
KIRKSVILLE     CLEAR     30  18  60 S6        30.42F WCI  24
6HR MIN TEMP:  29; 6HR MAX TEMP:  36;


$$

MOZ041-047>049-056>058-063>065-088>090-097-310100-
...EASTERN AND SOUTHERN MISSOURI...

CITY           SKY/WX    TMP DP  RH WIND       PRES   REMARKS
ST. LOUIS INTL NOT AVBL
SPIRIT OF STL  CLEAR     28  19  69 CALM      30.45S
COLUMBIA       PTCLDY    34  17  50 CALM      30.42F
JEFFERSON CITY MOCLDY    37  17  44 CALM      30.44F
MEXICO         PTCLDY    32  27  80 E3        30.44S
HANNIBAL       CLEAR     30  16  55 CALM      30.45S
ROLLA          MOCLDY    31  19  61 CALM      30.40F
LEBANON        CLOUDY    39  16  38 CALM      30.40F
OSAGE BEACH    CLOUDY    37  18  44 CALM      30.42F
SPRINGFIELD    CLOUDY    42  15  33 CALM      30.39F
BRANSON        CLOUDY    39  16  38 E3        30.41F
NEVADA         CLOUDY    37  28  70 CALM      30.42F
JOPLIN         CLOUDY    43  22  43 NE3       30.41F
WEST PLAINS    MOCLDY    39  16  39 E3        30.41F

$$

IAZ060-094-KSZ022-034>040-054-083-096-NEZ052-066-093-310100-
...KANSAS...SOUTHEAST NEBRASKA AND IOWA...

CITY           SKY/WX    TMP DP  RH WIND       PRES   REMARKS
TOPEKA         CLOUDY    38  21  50 S5        30.39F WCI  34
6HR MIN TEMP:  34; 6HR MAX TEMP:  42;

MANHATTAN      CLOUDY    39  26  59 SE3       30.36F
EMPORIA        CLOUDY    38  24  57 S7        30.37F WCI  33
CHANUTE        CLOUDY    40  23  50 SE3       30.40F
WICHITA        CLOUDY    41  25  53 SE5       30.36F
OMAHA          CLOUDY    34  24  67 S13       30.32F WCI  25
LINCOLN        MOCLDY    34  24  67 S9        30.31F WCI  27
FALLS CITY     CLOUDY    34  21  59 SE7       30.35F WCI  28
LAMONI         CLEAR     30  13  49 S7        30.38F WCI  23
DES MOINES     MOCLDY    32  14  47 S6        30.37F WCI  26

$$




USA.gov is the U.S. government's official web portal to all federal, state and local government web resources and services.